Time,TemperatureF,DewpointF,PressureIn,WindDirection,WindDirectionDegrees,WindSpeedMPH,WindSpeedGustMPH,Humidity,HourlyPrecipIn,Conditions,Clouds,dailyrainin,SoftwareType,DateUTC
2013-11-08 00:00:00,35.0,30.7,29.59,WSW,248,2.0,3.0,84,0.00,,,0.63,Wunderground v.1.15,2013-11-08 05:00:00,
2013-11-08 00:05:00,34.8,30.5,29.59,East,87,2.0,2.0,84,0.00,,,0.00,Wunderground v.1.15,2013-11-08 05:05:00,
2013-11-08 00:10:00,34.7,30.4,29.59,WSW,254,2.0,4.0,84,0.00,,,0.00,Wunderground v.1.15,2013-11-08 05:10:00,
2013-11-08 00:15:00,34.5,30.2,29.59,North,9,2.0,2.0,84,0.00,,,0.00,Wunderground v.1.15,2013-11-08 05:15:00,
2013-11-08 00:20:00,34.3,30.3,29.58,NNE,28,1.0,4.0,85,0.00,,,0.00,Wunderground v.1.15,2013-11-08 05:20:00,
2013-11-08 00:25:00,34.2,30.2,29.58,NE,46,1.0,1.0,85,0.00,,,0.00,Wunderground v.1.15,2013-11-08 05:25:00,
2013-11-08 00:35:00,34.0,30.0,29.59,WSW,247,2.0,4.0,85,0.00,,,0.00,Wunderground v.1.15,2013-11-08 05:35:00,
2013-11-08 00:40:00,33.9,29.9,29.59,SW,229,1.0,4.0,85,0.00,,,0.00,Wunderground v.1.15,2013-11-08 05:40:00,
2013-11-08 00:45:00,33.8,29.8,29.59,West,261,2.0,4.0,85,0.00,,,0.00,Wunderground v.1.15,2013-11-08 05:45:00,
2013-11-08 00:50:00,33.8,29.8,29.59,WSW,253,2.0,4.0,85,0.00,,,0.00,Wunderground v.1.15,2013-11-08 05:50:00,
2013-11-08 00:55:00,33.8,30.1,29.59,SW,227,2.0,2.0,86,0.00,,,0.00,Wunderground v.1.15,2013-11-08 05:55:00,
2013-11-08 01:00:00,33.7,30.0,29.59,WSW,258,2.0,8.0,86,0.00,,,0.00,Wunderground v.1.15,2013-11-08 06:00:00,
2013-11-08 01:05:00,33.7,30.0,29.59,WNW,293,2.0,5.0,86,0.00,,,0.00,Wunderground v.1.15,2013-11-08 06:05:00,
2013-11-08 01:10:00,33.8,30.1,29.59,WSW,239,3.0,5.0,86,0.00,,,0.00,Wunderground v.1.15,2013-11-08 06:10:00,
2013-11-08 01:15:00,33.8,30.1,29.59,East,91,3.0,7.0,86,0.00,,,0.00,Wunderground v.1.15,2013-11-08 06:15:00,
2013-11-08 01:20:00,33.8,30.1,29.59,NNE,26,3.0,7.0,86,0.00,,,0.00,Wunderground v.1.15,2013-11-08 06:20:00,
2013-11-08 01:25:00,33.8,30.1,29.59,NNW,332,3.0,3.0,86,0.00,,,0.00,Wunderground v.1.15,2013-11-08 06:25:00,
2013-11-08 01:30:00,33.8,30.1,29.59,NNW,344,3.0,4.0,86,0.00,,,0.00,Wunderground v.1.15,2013-11-08 06:30:00,
2013-11-08 01:35:00,33.7,30.0,29.59,West,273,2.0,12.0,86,0.00,,,0.00,Wunderground v.1.15,2013-11-08 06:35:00,
2013-11-08 01:40:00,33.8,30.1,29.59,East,89,2.0,12.0,86,0.00,,,0.00,Wunderground v.1.15,2013-11-08 06:40:00,
2013-11-08 01:45:00,33.7,30.0,29.59,WNW,292,3.0,4.0,86,0.00,,,0.00,Wunderground v.1.15,2013-11-08 06:45:00,
2013-11-08 01:50:00,33.8,30.1,29.59,East,99,3.0,4.0,86,0.00,,,0.00,Wunderground v.1.15,2013-11-08 06:50:00,
2013-11-08 01:55:00,33.9,30.2,29.59,West,281,3.0,3.0,86,0.00,,,0.00,Wunderground v.1.15,2013-11-08 06:55:00,
2013-11-08 02:00:00,33.9,30.2,29.59,ESE,119,2.0,4.0,86,0.00,,,0.00,Wunderground v.1.15,2013-11-08 07:00:00,
2013-11-08 02:05:00,33.8,30.1,29.59,WSW,257,2.0,4.0,86,0.00,,,0.00,Wunderground v.1.15,2013-11-08 07:05:00,
2013-11-08 02:10:00,33.8,30.1,29.59,ESE,113,2.0,4.0,86,0.00,,,0.00,Wunderground v.1.15,2013-11-08 07:10:00,
2013-11-08 02:15:00,33.8,30.1,29.59,SW,227,2.0,4.0,86,0.00,,,0.00,Wunderground v.1.15,2013-11-08 07:15:00,
2013-11-08 02:20:00,33.8,30.1,29.59,North,349,2.0,4.0,86,0.00,,,0.00,Wunderground v.1.15,2013-11-08 07:20:00,
2013-11-08 02:25:00,33.8,30.1,29.59,SSW,196,3.0,3.0,86,0.00,,,0.00,Wunderground v.1.15,2013-11-08 07:25:00,
2013-11-08 02:30:00,33.7,30.0,29.59,WSW,244,2.0,8.0,86,0.00,,,0.00,Wunderground v.1.15,2013-11-08 07:30:00,
2013-11-08 02:35:00,33.7,30.0,29.60,WSW,245,2.0,4.0,86,0.00,,,0.00,Wunderground v.1.15,2013-11-08 07:35:00,
2013-11-08 02:40:00,33.8,30.1,29.59,SW,225,3.0,6.0,86,0.00,,,0.00,Wunderground v.1.15,2013-11-08 07:40:00,
2013-11-08 02:45:00,33.7,30.0,29.59,SSW,202,2.0,4.0,86,0.00,,,0.00,Wunderground v.1.15,2013-11-08 07:45:00,
2013-11-08 02:50:00,33.7,30.0,29.59,East,81,2.0,6.0,86,0.00,,,0.00,Wunderground v.1.15,2013-11-08 07:50:00,
2013-11-08 02:55:00,33.7,29.7,29.59,NE,49,2.0,2.0,85,0.00,,,0.00,Wunderground v.1.15,2013-11-08 07:55:00,
2013-11-08 03:00:00,33.6,29.6,29.59,East,84,3.0,3.0,85,0.00,,,0.00,Wunderground v.1.15,2013-11-08 08:00:00,
2013-11-08 03:05:00,33.6,29.6,29.59,NNW,333,3.0,3.0,85,0.00,,,0.00,Wunderground v.1.15,2013-11-08 08:05:00,
2013-11-08 03:10:00,33.5,29.5,29.59,North,355,2.0,4.0,85,0.00,,,0.00,Wunderground v.1.15,2013-11-08 08:10:00,
2013-11-08 03:15:00,33.4,29.4,29.59,SSE,161,1.0,1.0,85,0.00,,,0.00,Wunderground v.1.15,2013-11-08 08:15:00,
2013-11-08 03:20:00,33.4,29.4,29.59,NNW,338,1.0,4.0,85,0.00,,,0.00,Wunderground v.1.15,2013-11-08 08:20:00,
2013-11-08 03:25:00,33.3,29.0,29.59,WSW,256,1.0,4.0,84,0.00,,,0.00,Wunderground v.1.15,2013-11-08 08:25:00,
2013-11-08 03:30:00,33.3,29.0,29.59,NNW,339,2.0,4.0,84,0.00,,,0.00,Wunderground v.1.15,2013-11-08 08:30:00,
2013-11-08 03:35:00,33.3,29.0,29.59,WSW,246,2.0,2.0,84,0.00,,,0.00,Wunderground v.1.15,2013-11-08 08:35:00,
2013-11-08 03:40:00,33.2,28.9,29.59,SW,222,2.0,4.0,84,0.00,,,0.00,Wunderground v.1.15,2013-11-08 08:40:00,
2013-11-08 03:45:00,33.1,28.8,29.59,SSW,196,1.0,1.0,84,0.00,,,0.00,Wunderground v.1.15,2013-11-08 08:45:00,
2013-11-08 03:50:00,33.0,28.7,29.59,SSW,198,1.0,4.0,84,0.00,,,0.00,Wunderground v.1.15,2013-11-08 08:50:00,
2013-11-08 03:55:00,33.0,28.7,29.60,WSW,244,2.0,2.0,84,0.00,,,0.00,Wunderground v.1.15,2013-11-08 08:55:00,
2013-11-08 04:00:00,33.1,28.8,29.60,SSW,196,2.0,4.0,84,0.00,,,0.00,Wunderground v.1.15,2013-11-08 09:00:00,
2013-11-08 04:05:00,33.0,28.7,29.60,ESE,109,2.0,2.0,84,0.00,,,0.00,Wunderground v.1.15,2013-11-08 09:05:00,
2013-11-08 04:10:00,33.0,28.7,29.60,NW,325,2.0,4.0,84,0.00,,,0.00,Wunderground v.1.15,2013-11-08 09:10:00,
2013-11-08 04:15:00,33.0,28.7,29.60,NE,50,2.0,4.0,84,0.00,,,0.00,Wunderground v.1.15,2013-11-08 09:15:00,
2013-11-08 04:20:00,32.9,28.6,29.60,SSW,199,2.0,4.0,84,0.00,,,0.00,Wunderground v.1.15,2013-11-08 09:20:00,
2013-11-08 04:25:00,32.9,28.6,29.60,ESE,116,1.0,4.0,84,0.00,,,0.00,Wunderground v.1.15,2013-11-08 09:25:00,
2013-11-08 04:30:00,32.9,28.6,29.60,SW,225,2.0,4.0,84,0.00,,,0.00,Wunderground v.1.15,2013-11-08 09:30:00,
2013-11-08 04:35:00,32.9,28.6,29.60,WSW,252,2.0,6.0,84,0.00,,,0.00,Wunderground v.1.15,2013-11-08 09:35:00,
2013-11-08 04:40:00,32.9,28.6,29.60,NNW,332,2.0,6.0,84,0.00,,,0.00,Wunderground v.1.15,2013-11-08 09:40:00,
2013-11-08 04:45:00,32.8,28.5,29.60,NE,46,2.0,2.0,84,0.00,,,0.00,Wunderground v.1.15,2013-11-08 09:45:00,
2013-11-08 04:50:00,32.8,28.8,29.61,WSW,244,2.0,4.0,85,0.00,,,0.00,Wunderground v.1.15,2013-11-08 09:50:00,
2013-11-08 04:55:00,32.8,28.8,29.61,NNE,29,2.0,4.0,85,0.00,,,0.00,Wunderground v.1.15,2013-11-08 09:55:00,
2013-11-08 05:00:00,32.8,28.8,29.61,NW,311,3.0,4.0,85,0.00,,,0.00,Wunderground v.1.15,2013-11-08 10:00:00,
2013-11-08 05:05:00,32.8,28.8,29.61,WSW,252,3.0,5.0,85,0.00,,,0.00,Wunderground v.1.15,2013-11-08 10:05:00,
2013-11-08 05:10:00,32.8,28.8,29.61,West,277,3.0,5.0,85,0.00,,,0.00,Wunderground v.1.15,2013-11-08 10:10:00,
2013-11-08 05:15:00,32.8,28.8,29.61,WSW,255,2.0,2.0,85,0.00,,,0.00,Wunderground v.1.15,2013-11-08 10:15:00,
2013-11-08 05:20:00,32.8,28.8,29.61,SSW,209,2.0,4.0,85,0.00,,,0.00,Wunderground v.1.15,2013-11-08 10:20:00,
2013-11-08 05:25:00,32.8,28.8,29.60,SW,215,2.0,8.0,85,0.00,,,0.00,Wunderground v.1.15,2013-11-08 10:25:00,
2013-11-08 05:30:00,32.8,28.8,29.61,NW,319,2.0,8.0,85,0.00,,,0.00,Wunderground v.1.15,2013-11-08 10:30:00,
2013-11-08 05:35:00,32.8,28.8,29.61,WNW,285,2.0,4.0,85,0.00,,,0.00,Wunderground v.1.15,2013-11-08 10:35:00,
2013-11-08 05:40:00,32.9,28.9,29.61,NNE,28,2.0,4.0,85,0.00,,,0.00,Wunderground v.1.15,2013-11-08 10:40:00,
2013-11-08 05:45:00,32.8,28.8,29.61,West,259,2.0,7.0,85,0.00,,,0.00,Wunderground v.1.15,2013-11-08 10:45:00,
2013-11-08 05:50:00,32.8,28.8,29.61,West,260,2.0,7.0,85,0.00,,,0.00,Wunderground v.1.15,2013-11-08 10:50:00,
2013-11-08 05:55:00,32.7,28.7,29.61,SW,225,2.0,4.0,85,0.00,,,0.00,Wunderground v.1.15,2013-11-08 10:55:00,
2013-11-08 06:00:00,32.6,28.9,29.61,SW,230,2.0,4.0,86,0.00,,,0.00,Wunderground v.1.15,2013-11-08 11:00:00,
2013-11-08 06:05:00,32.7,29.0,29.62,East,84,2.0,2.0,86,0.00,,,0.00,Wunderground v.1.15,2013-11-08 11:05:00,
2013-11-08 06:10:00,32.7,29.0,29.62,SSW,213,2.0,4.0,86,0.00,,,0.00,Wunderground v.1.15,2013-11-08 11:10:00,
2013-11-08 06:15:00,32.8,29.1,29.62,NE,50,2.0,4.0,86,0.00,,,0.00,Wunderground v.1.15,2013-11-08 11:15:00,
2013-11-08 06:20:00,32.8,29.1,29.62,ENE,72,2.0,4.0,86,0.00,,,0.00,Wunderground v.1.15,2013-11-08 11:20:00,
2013-11-08 06:25:00,32.8,28.8,29.62,SW,214,2.0,6.0,85,0.00,,,0.00,Wunderground v.1.15,2013-11-08 11:25:00,
2013-11-08 06:30:00,32.9,29.2,29.63,West,259,2.0,6.0,86,0.00,,,0.00,Wunderground v.1.15,2013-11-08 11:30:00,
2013-11-08 06:35:00,33.0,29.3,29.63,South,178,2.0,2.0,86,0.00,,,0.00,Wunderground v.1.15,2013-11-08 11:35:00,
2013-11-08 06:40:00,33.2,29.2,29.63,ESE,103,2.0,4.0,85,0.00,,,0.00,Wunderground v.1.15,2013-11-08 11:40:00,
2013-11-08 06:45:00,33.2,29.2,29.63,NNW,340,2.0,4.0,85,0.00,,,0.00,Wunderground v.1.15,2013-11-08 11:45:00,
2013-11-08 06:50:00,33.4,29.4,29.64,NNE,14,2.0,4.0,85,0.00,,,0.00,Wunderground v.1.15,2013-11-08 11:50:00,
2013-11-08 06:55:00,33.5,29.2,29.64,North,355,3.0,3.0,84,0.00,,,0.00,Wunderground v.1.15,2013-11-08 11:55:00,
2013-11-08 07:00:00,33.5,29.2,29.64,NW,310,2.0,4.0,84,0.00,,,0.00,Wunderground v.1.15,2013-11-08 12:00:00,
2013-11-08 07:05:00,33.6,29.3,29.64,NNE,31,2.0,2.0,84,0.00,,,0.00,Wunderground v.1.15,2013-11-08 12:05:00,
2013-11-08 07:10:00,33.5,29.2,29.64,SW,234,3.0,8.0,84,0.00,,,0.00,Wunderground v.1.15,2013-11-08 12:10:00,
2013-11-08 07:15:00,33.5,29.2,29.65,NE,46,2.0,2.0,84,0.00,,,0.00,Wunderground v.1.15,2013-11-08 12:15:00,
2013-11-08 07:20:00,33.4,29.1,29.65,SW,215,2.0,4.0,84,0.00,,,0.00,Wunderground v.1.15,2013-11-08 12:20:00,
2013-11-08 07:25:00,33.4,29.4,29.65,NW,313,1.0,4.0,85,0.00,,,0.00,Wunderground v.1.15,2013-11-08 12:25:00,
2013-11-08 07:30:00,33.4,29.4,29.65,NNW,335,1.0,4.0,85,0.00,,,0.00,Wunderground v.1.15,2013-11-08 12:30:00,
2013-11-08 07:35:00,33.4,29.4,29.65,SW,223,1.0,1.0,85,0.00,,,0.00,Wunderground v.1.15,2013-11-08 12:35:00,
2013-11-08 07:40:00,33.4,29.4,29.66,West,263,2.0,2.0,85,0.00,,,0.00,Wunderground v.1.15,2013-11-08 12:40:00,
2013-11-08 07:45:00,33.4,29.4,29.66,West,269,2.0,4.0,85,0.00,,,0.00,Wunderground v.1.15,2013-11-08 12:45:00,
2013-11-08 07:50:00,33.5,29.5,29.66,WSW,253,3.0,4.0,85,0.00,,,0.00,Wunderground v.1.15,2013-11-08 12:50:00,
2013-11-08 07:55:00,33.5,29.8,29.66,NNE,23,3.0,3.0,86,0.00,,,0.00,Wunderground v.1.15,2013-11-08 12:55:00,
2013-11-08 08:00:00,33.5,29.8,29.67,ENE,63,3.0,4.0,86,0.00,,,0.00,Wunderground v.1.15,2013-11-08 13:00:00,
2013-11-08 08:05:00,33.5,29.8,29.67,NE,54,2.0,4.0,86,0.00,,,0.00,Wunderground v.1.15,2013-11-08 13:05:00,
2013-11-08 08:10:00,33.5,29.8,29.67,West,277,2.0,4.0,86,0.00,,,0.00,Wunderground v.1.15,2013-11-08 13:10:00,
2013-11-08 08:15:00,33.5,30.0,29.67,East,89,2.0,5.0,87,0.00,,,0.00,Wunderground v.1.15,2013-11-08 13:15:00,
2013-11-08 08:20:00,33.5,30.0,29.67,East,98,3.0,5.0,87,0.00,,,0.00,Wunderground v.1.15,2013-11-08 13:20:00,
2013-11-08 08:25:00,33.5,30.0,29.67,North,355,3.0,3.0,87,0.00,,,0.00,Wunderground v.1.15,2013-11-08 13:25:00,
2013-11-08 08:30:00,33.5,30.3,29.68,SE,144,2.0,4.0,88,0.00,,,0.00,Wunderground v.1.15,2013-11-08 13:30:00,
2013-11-08 08:35:00,33.4,30.2,29.68,WSW,242,1.0,4.0,88,0.00,,,0.00,Wunderground v.1.15,2013-11-08 13:35:00,
2013-11-08 08:40:00,33.4,30.2,29.68,WSW,255,2.0,4.0,88,0.00,,,0.00,Wunderground v.1.15,2013-11-08 13:40:00,
2013-11-08 08:50:00,33.5,30.6,29.68,WSW,248,2.0,4.0,89,0.00,,,0.00,Wunderground v.1.15,2013-11-08 13:50:00,
2013-11-08 08:55:00,33.5,30.6,29.68,ENE,67,1.0,1.0,89,0.00,,,0.00,Wunderground v.1.15,2013-11-08 13:55:00,
2013-11-08 09:00:00,33.3,30.4,29.68,West,275,2.0,2.0,89,0.00,,,0.00,Wunderground v.1.15,2013-11-08 14:00:00,
2013-11-08 09:05:00,33.2,30.6,29.69,SSW,198,2.0,2.0,90,0.00,,,0.00,Wunderground v.1.15,2013-11-08 14:05:00,
2013-11-08 09:10:00,33.2,30.9,29.68,West,269,2.0,3.0,91,0.00,,,0.00,Wunderground v.1.15,2013-11-08 14:10:00,
2013-11-08 09:15:00,33.1,30.8,29.69,NNE,14,2.0,9.0,91,0.00,,,0.00,Wunderground v.1.15,2013-11-08 14:15:00,
2013-11-08 09:20:00,33.0,30.9,29.69,NNE,19,2.0,9.0,92,0.00,,,0.00,Wunderground v.1.15,2013-11-08 14:20:00,
2013-11-08 09:25:00,32.9,30.8,29.69,ESE,117,3.0,3.0,92,0.00,,,0.00,Wunderground v.1.15,2013-11-08 14:25:00,
2013-11-08 09:30:00,32.8,30.7,29.70,NW,325,2.0,4.0,92,0.00,,,0.00,Wunderground v.1.15,2013-11-08 14:30:00,
2013-11-08 09:35:00,32.7,30.9,29.70,East,90,2.0,2.0,93,0.00,,,0.00,Wunderground v.1.15,2013-11-08 14:35:00,
2013-11-08 09:40:00,32.7,30.9,29.70,NW,313,1.0,4.0,93,0.00,,,0.00,Wunderground v.1.15,2013-11-08 14:40:00,
2013-11-08 09:45:00,32.6,30.8,29.70,NNE,22,1.0,1.0,93,0.00,,,0.00,Wunderground v.1.15,2013-11-08 14:45:00,
2013-11-08 09:50:00,32.5,31.0,29.70,East,96,2.0,2.0,94,0.00,,,0.00,Wunderground v.1.15,2013-11-08 14:50:00,
2013-11-08 09:55:00,32.5,31.0,29.70,North,5,2.0,2.0,94,0.00,,,0.00,Wunderground v.1.15,2013-11-08 14:55:00,
2013-11-08 10:00:00,32.5,31.0,29.71,NE,37,2.0,4.0,94,0.00,,,0.00,Wunderground v.1.15,2013-11-08 15:00:00,
2013-11-08 10:05:00,32.5,31.0,29.71,SW,231,1.0,4.0,94,0.00,,,0.00,Wunderground v.1.15,2013-11-08 15:05:00,
2013-11-08 10:10:00,32.4,30.9,29.71,ENE,74,2.0,4.0,94,0.00,,,0.00,Wunderground v.1.15,2013-11-08 15:10:00,
2013-11-08 10:15:00,32.4,30.9,29.71,East,82,2.0,4.0,94,0.00,,,0.00,Wunderground v.1.15,2013-11-08 15:15:00,
2013-11-08 10:20:00,32.4,30.9,29.71,NNE,22,2.0,4.0,94,0.00,,,0.00,Wunderground v.1.15,2013-11-08 15:20:00,
2013-11-08 10:25:00,32.5,31.0,29.71,NE,40,1.0,1.0,94,0.00,,,0.00,Wunderground v.1.15,2013-11-08 15:25:00,
2013-11-08 10:30:00,32.6,31.1,29.71,NNE,32,1.0,3.0,94,0.00,,,0.00,Wunderground v.1.15,2013-11-08 15:30:00,
2013-11-08 10:35:00,32.5,31.0,29.72,North,350,3.0,8.0,94,0.00,,,0.00,Wunderground v.1.15,2013-11-08 15:35:00,
2013-11-08 10:40:00,32.4,30.9,29.72,ENE,78,4.0,8.0,94,0.00,,,0.00,Wunderground v.1.15,2013-11-08 15:40:00,
2013-11-08 10:45:00,32.4,30.9,29.72,NW,321,3.0,6.0,94,0.00,,,0.00,Wunderground v.1.15,2013-11-08 15:45:00,
2013-11-08 10:50:00,32.3,30.8,29.72,ENE,75,3.0,6.0,94,0.00,,,0.00,Wunderground v.1.15,2013-11-08 15:50:00,
2013-11-08 10:55:00,32.3,30.8,29.72,ENE,57,3.0,3.0,94,0.00,,,0.00,Wunderground v.1.15,2013-11-08 15:55:00,
2013-11-08 11:00:00,32.1,30.6,29.72,East,80,4.0,4.0,94,0.00,,,0.00,Wunderground v.1.15,2013-11-08 16:00:00,
2013-11-08 11:05:00,31.9,30.4,29.72,East,86,4.0,5.0,94,0.00,,,0.00,Wunderground v.1.15,2013-11-08 16:05:00,
2013-11-08 11:10:00,31.8,30.3,29.73,East,84,4.0,13.0,94,0.00,,,0.00,Wunderground v.1.15,2013-11-08 16:10:00,
2013-11-08 11:15:00,31.7,29.9,29.73,East,93,4.0,21.0,93,0.00,,,0.00,Wunderground v.1.15,2013-11-08 16:15:00,
2013-11-08 11:20:00,31.9,30.1,29.73,ENE,78,5.0,21.0,93,0.00,,,0.00,Wunderground v.1.15,2013-11-08 16:20:00,
2013-11-08 11:25:00,32.3,30.5,29.73,East,100,5.0,5.0,93,0.00,,,0.00,Wunderground v.1.15,2013-11-08 16:25:00,
2013-11-08 11:30:00,32.9,30.8,29.73,NNE,29,4.0,5.0,92,0.00,,,0.00,Wunderground v.1.15,2013-11-08 16:30:00,
2013-11-08 11:35:00,33.4,31.1,29.73,NE,46,3.0,3.0,91,0.00,,,0.00,Wunderground v.1.15,2013-11-08 16:35:00,
2013-11-08 11:40:00,33.7,31.4,29.73,East,84,2.0,4.0,91,0.00,,,0.00,Wunderground v.1.15,2013-11-08 16:40:00,
2013-11-08 11:45:00,33.7,31.1,29.73,NE,34,4.0,4.0,90,0.00,,,0.00,Wunderground v.1.15,2013-11-08 16:45:00,
2013-11-08 11:50:00,33.8,30.9,29.72,ENE,64,4.0,4.0,89,0.00,,,0.00,Wunderground v.1.15,2013-11-08 16:50:00,
2013-11-08 11:55:00,34.0,31.1,29.72,North,360,3.0,5.0,89,0.00,,,0.00,Wunderground v.1.15,2013-11-08 16:55:00,
2013-11-08 12:00:00,34.2,31.3,29.72,NE,53,2.0,5.0,89,0.00,,,0.00,Wunderground v.1.15,2013-11-08 17:00:00,
2013-11-08 12:05:00,34.3,31.1,29.72,East,96,3.0,6.0,88,0.00,,,0.00,Wunderground v.1.15,2013-11-08 17:05:00,
2013-11-08 12:10:00,34.6,31.4,29.72,NE,35,3.0,6.0,88,0.00,,,0.00,Wunderground v.1.15,2013-11-08 17:10:00,
2013-11-08 12:15:00,35.1,31.6,29.72,NE,52,2.0,4.0,87,0.00,,,0.01,Wunderground v.1.15,2013-11-08 17:15:00,
2013-11-08 12:20:00,35.8,32.0,29.72,WSW,242,2.0,4.0,86,0.00,,,0.01,Wunderground v.1.15,2013-11-08 17:20:00,
2013-11-08 12:25:00,36.0,31.3,29.72,ENE,77,2.0,2.0,83,0.00,,,0.01,Wunderground v.1.15,2013-11-08 17:25:00,
2013-11-08 12:30:00,36.0,30.7,29.71,NNW,327,2.0,6.0,81,0.04,,,0.02,Wunderground v.1.15,2013-11-08 17:30:00,
2013-11-08 12:35:00,35.8,30.2,29.72,ESE,111,4.0,4.0,80,0.04,,,0.02,Wunderground v.1.15,2013-11-08 17:35:00,
2013-11-08 12:40:00,35.9,30.3,29.72,East,83,4.0,4.0,80,0.04,,,0.02,Wunderground v.1.15,2013-11-08 17:40:00,
2013-11-08 12:45:00,36.3,29.5,29.72,ENE,76,4.0,4.0,76,0.00,,,0.02,Wunderground v.1.15,2013-11-08 17:45:00,
2013-11-08 12:50:00,36.9,30.0,29.72,East,91,4.0,10.0,76,0.00,,,0.03,Wunderground v.1.15,2013-11-08 17:50:00,
2013-11-08 12:55:00,37.0,29.8,29.72,ENE,76,4.0,4.0,75,0.00,,,0.03,Wunderground v.1.15,2013-11-08 17:55:00,
2013-11-08 13:00:00,37.0,29.5,29.72,East,88,5.0,5.0,74,0.00,,,0.03,Wunderground v.1.15,2013-11-08 18:00:00,
2013-11-08 13:05:00,36.8,29.9,29.72,WNW,284,4.0,4.0,76,0.00,,,0.03,Wunderground v.1.15,2013-11-08 18:05:00,
2013-11-08 13:10:00,36.5,30.0,29.72,ENE,68,4.0,14.0,77,0.00,,,0.03,Wunderground v.1.15,2013-11-08 18:10:00,
2013-11-08 13:15:00,35.5,30.2,29.73,ENE,69,6.0,6.0,81,0.00,,,0.04,Wunderground v.1.15,2013-11-08 18:15:00,
2013-11-08 13:20:00,34.2,30.2,29.73,ENE,77,8.0,13.0,85,0.00,,,0.04,Wunderground v.1.15,2013-11-08 18:20:00,
2013-11-08 13:25:00,33.2,30.0,29.73,SW,235,6.0,6.0,88,0.00,,,0.04,Wunderground v.1.15,2013-11-08 18:25:00,
2013-11-08 13:30:00,32.9,30.3,29.73,East,89,4.0,7.0,90,0.00,,,0.04,Wunderground v.1.15,2013-11-08 18:30:00,
2013-11-08 13:35:00,33.2,30.9,29.73,SW,216,3.0,6.0,91,0.00,,,0.04,Wunderground v.1.15,2013-11-08 18:35:00,
2013-11-08 13:40:00,33.4,31.1,29.74,ENE,74,2.0,6.0,91,0.00,,,0.04,Wunderground v.1.15,2013-11-08 18:40:00,
2013-11-08 13:45:00,33.1,30.8,29.74,ENE,76,3.0,8.0,91,0.00,,,0.04,Wunderground v.1.15,2013-11-08 18:45:00,
2013-11-08 13:50:00,33.0,30.9,29.74,ENE,78,4.0,8.0,92,0.00,,,0.04,Wunderground v.1.15,2013-11-08 18:50:00,
2013-11-08 14:00:00,33.2,30.9,29.74,NE,38,4.0,4.0,91,0.00,,,0.04,Wunderground v.1.15,2013-11-08 19:00:00,
2013-11-08 14:05:00,33.8,31.5,29.74,East,80,4.0,4.0,91,0.00,,,0.04,Wunderground v.1.15,2013-11-08 19:05:00,
2013-11-08 14:10:00,34.1,31.5,29.74,East,92,4.0,4.0,90,0.00,,,0.05,Wunderground v.1.15,2013-11-08 19:10:00,
2013-11-08 14:15:00,34.2,31.3,29.75,SE,141,3.0,3.0,89,0.00,,,0.05,Wunderground v.1.15,2013-11-08 19:15:00,
2013-11-08 14:20:00,34.2,31.0,29.75,East,86,4.0,4.0,88,0.00,,,0.05,Wunderground v.1.15,2013-11-08 19:20:00,
2013-11-08 14:25:00,34.3,31.1,29.75,NNW,340,5.0,6.0,88,0.00,,,0.05,Wunderground v.1.15,2013-11-08 19:25:00,
2013-11-08 14:30:00,34.3,30.8,29.75,SSE,154,4.0,6.0,87,0.00,,,0.05,Wunderground v.1.15,2013-11-08 19:30:00,
2013-11-08 14:35:00,34.3,30.5,29.75,North,355,2.0,2.0,86,0.00,,,0.05,Wunderground v.1.15,2013-11-08 19:35:00,
2013-11-08 14:40:00,34.4,30.6,29.75,ENE,58,2.0,8.0,86,0.00,,,0.05,Wunderground v.1.15,2013-11-08 19:40:00,
2013-11-08 14:45:00,34.2,30.4,29.75,NW,315,3.0,4.0,86,0.00,,,0.05,Wunderground v.1.15,2013-11-08 19:45:00,
2013-11-08 14:50:00,34.1,30.4,29.76,ENE,69,4.0,4.0,86,0.00,,,0.05,Wunderground v.1.15,2013-11-08 19:50:00,
2013-11-08 14:55:00,33.8,30.3,29.76,SE,124,3.0,3.0,87,0.00,,,0.05,Wunderground v.1.15,2013-11-08 19:55:00,
2013-11-08 15:00:00,33.4,30.2,29.76,ENE,74,1.0,4.0,88,0.00,,,0.05,Wunderground v.1.15,2013-11-08 20:00:00,
2013-11-08 15:05:00,33.0,30.1,29.76,East,93,1.0,4.0,89,0.00,,,0.05,Wunderground v.1.15,2013-11-08 20:05:00,
2013-11-08 15:10:00,32.9,30.3,29.77,ENE,57,1.0,4.0,90,0.00,,,0.05,Wunderground v.1.15,2013-11-08 20:10:00,
2013-11-08 15:15:00,32.8,30.5,29.77,SE,129,1.0,1.0,91,0.00,,,0.05,Wunderground v.1.15,2013-11-08 20:15:00,
2013-11-08 15:20:00,32.8,30.5,29.77,WSW,240,1.0,2.0,91,0.00,,,0.05,Wunderground v.1.15,2013-11-08 20:20:00,
2013-11-08 15:25:00,32.9,30.6,29.77,NE,34,1.0,1.0,91,0.00,,,0.05,Wunderground v.1.15,2013-11-08 20:25:00,
2013-11-08 15:30:00,32.9,30.6,29.77,ESE,115,1.0,2.0,91,0.00,,,0.05,Wunderground v.1.15,2013-11-08 20:30:00,
2013-11-08 15:35:00,32.9,30.6,29.77,SSW,204,1.0,1.0,91,0.00,,,0.05,Wunderground v.1.15,2013-11-08 20:35:00,
2013-11-08 15:40:00,33.0,30.4,29.77,WNW,286,1.0,5.0,90,0.00,,,0.05,Wunderground v.1.15,2013-11-08 20:40:00,
2013-11-08 15:45:00,33.1,30.5,29.77,NE,44,2.0,4.0,90,0.00,,,0.05,Wunderground v.1.15,2013-11-08 20:45:00,
2013-11-08 15:50:00,33.2,30.3,29.77,ENE,66,2.0,7.0,89,0.00,,,0.05,Wunderground v.1.15,2013-11-08 20:50:00,
2013-11-08 15:55:00,33.3,30.1,29.78,East,79,3.0,3.0,88,0.00,,,0.05,Wunderground v.1.15,2013-11-08 20:55:00,
2013-11-08 16:00:00,33.4,29.9,29.78,NE,46,3.0,4.0,87,0.00,,,0.05,Wunderground v.1.15,2013-11-08 21:00:00,
2013-11-08 16:05:00,33.5,30.0,29.78,North,355,2.0,8.0,87,0.00,,,0.05,Wunderground v.1.15,2013-11-08 21:05:00,
2013-11-08 16:10:00,33.6,29.9,29.78,East,86,2.0,8.0,86,0.00,,,0.05,Wunderground v.1.15,2013-11-08 21:10:00,
2013-11-08 16:15:00,33.6,29.9,29.78,North,360,2.0,2.0,86,0.00,,,0.05,Wunderground v.1.15,2013-11-08 21:15:00,
2013-11-08 16:20:00,33.7,30.0,29.78,NE,56,1.0,4.0,86,0.00,,,0.05,Wunderground v.1.15,2013-11-08 21:20:00,
2013-11-08 16:25:00,33.6,29.9,29.78,ENE,63,1.0,4.0,86,0.00,,,0.05,Wunderground v.1.15,2013-11-08 21:25:00,
2013-11-08 16:30:00,33.6,29.9,29.79,ENE,65,1.0,4.0,86,0.00,,,0.05,Wunderground v.1.15,2013-11-08 21:30:00,
2013-11-08 16:40:00,33.4,29.9,29.79,East,94,2.0,2.0,87,0.00,,,0.05,Wunderground v.1.15,2013-11-08 21:40:00,
2013-11-08 16:45:00,33.4,29.9,29.79,East,94,1.0,1.0,87,0.00,,,0.05,Wunderground v.1.15,2013-11-08 21:45:00,
2013-11-08 16:50:00,33.4,29.9,29.79,East,94,0.0,4.0,87,0.00,,,0.05,Wunderground v.1.15,2013-11-08 21:50:00,
2013-11-08 16:55:00,33.4,29.7,29.79,East,97,1.0,4.0,86,0.00,,,0.05,Wunderground v.1.15,2013-11-08 21:55:00,
2013-11-08 17:00:00,33.5,29.8,29.79,NE,45,1.0,4.0,86,0.00,,,0.05,Wunderground v.1.15,2013-11-08 22:00:00,
2013-11-08 17:05:00,33.7,29.4,29.78,West,279,2.0,2.0,84,0.00,,,0.05,Wunderground v.1.15,2013-11-08 22:05:00,
2013-11-08 17:15:00,33.7,29.4,29.79,East,90,2.0,2.0,84,0.00,,,0.05,Wunderground v.1.15,2013-11-08 22:15:00,
2013-11-08 17:20:00,33.7,29.4,29.79,ENE,71,2.0,11.0,84,0.00,,,0.05,Wunderground v.1.15,2013-11-08 22:20:00,
2013-11-08 17:25:00,33.7,29.4,29.79,ENE,78,1.0,4.0,84,0.00,,,0.05,Wunderground v.1.15,2013-11-08 22:25:00,
2013-11-08 17:30:00,33.8,29.2,29.79,East,86,2.0,4.0,83,0.00,,,0.05,Wunderground v.1.15,2013-11-08 22:30:00,
2013-11-08 17:35:00,33.9,29.3,29.80,ENE,57,2.0,2.0,83,0.00,,,0.05,Wunderground v.1.15,2013-11-08 22:35:00,
2013-11-08 17:40:00,33.9,29.3,29.80,NNW,348,2.0,4.0,83,0.00,,,0.05,Wunderground v.1.15,2013-11-08 22:40:00,
2013-11-08 17:45:00,34.0,29.1,29.80,North,5,2.0,4.0,82,0.00,,,0.05,Wunderground v.1.15,2013-11-08 22:45:00,
2013-11-08 17:50:00,34.0,29.1,29.80,NE,56,2.0,4.0,82,0.00,,,0.05,Wunderground v.1.15,2013-11-08 22:50:00,
2013-11-08 17:55:00,34.1,28.9,29.81,East,92,1.0,1.0,81,0.00,,,0.05,Wunderground v.1.15,2013-11-08 22:55:00,
2013-11-08 18:00:00,34.1,28.9,29.81,East,83,2.0,2.0,81,0.00,,,0.05,Wunderground v.1.15,2013-11-08 23:00:00,
2013-11-08 18:05:00,34.1,28.9,29.81,ENE,62,2.0,2.0,81,0.00,,,0.05,Wunderground v.1.15,2013-11-08 23:05:00,
2013-11-08 18:10:00,34.2,29.0,29.81,NNE,25,2.0,4.0,81,0.00,,,0.05,Wunderground v.1.15,2013-11-08 23:10:00,
2013-11-08 18:15:00,34.3,28.8,29.81,ENE,57,2.0,4.0,80,0.00,,,0.05,Wunderground v.1.15,2013-11-08 23:15:00,
2013-11-08 18:20:00,34.3,28.8,29.81,East,96,3.0,4.0,80,0.00,,,0.05,Wunderground v.1.15,2013-11-08 23:20:00,
2013-11-08 18:25:00,34.4,28.9,29.82,ENE,72,3.0,3.0,80,0.00,,,0.05,Wunderground v.1.15,2013-11-08 23:25:00,
2013-11-08 18:30:00,34.5,28.7,29.82,ENE,64,3.0,4.0,79,0.00,,,0.05,Wunderground v.1.15,2013-11-08 23:30:00,
2013-11-08 18:35:00,34.5,28.7,29.82,NNW,348,3.0,4.0,79,0.00,,,0.05,Wunderground v.1.15,2013-11-08 23:35:00,
2013-11-08 18:40:00,34.4,28.6,29.82,ENE,72,3.0,8.0,79,0.00,,,0.05,Wunderground v.1.15,2013-11-08 23:40:00,
2013-11-08 18:45:00,34.4,28.2,29.82,ENE,73,2.0,2.0,78,0.00,,,0.05,Wunderground v.1.15,2013-11-08 23:45:00,
2013-11-08 18:50:00,34.4,28.6,29.82,NE,38,2.0,4.0,79,0.00,,,0.05,Wunderground v.1.15,2013-11-08 23:50:00,
2013-11-08 18:55:00,34.4,28.6,29.82,WSW,240,2.0,5.0,79,0.00,,,0.05,Wunderground v.1.15,2013-11-08 23:55:00,
2013-11-08 19:00:00,34.4,28.6,29.82,WSW,253,2.0,5.0,79,0.00,,,0.05,Wunderground v.1.15,2013-11-09 00:00:00,
2013-11-08 19:05:00,34.4,28.6,29.82,ENE,70,2.0,4.0,79,0.00,,,0.05,Wunderground v.1.15,2013-11-09 00:05:00,
2013-11-08 19:10:00,34.4,28.2,29.83,East,80,2.0,4.0,78,0.00,,,0.05,Wunderground v.1.15,2013-11-09 00:10:00,
2013-11-08 19:15:00,34.3,28.5,29.83,NNE,16,2.0,2.0,79,0.00,,,0.05,Wunderground v.1.15,2013-11-09 00:15:00,
2013-11-08 19:20:00,34.3,28.5,29.83,SW,217,1.0,4.0,79,0.00,,,0.05,Wunderground v.1.15,2013-11-09 00:20:00,
2013-11-08 19:25:00,34.3,28.2,29.83,WNW,284,1.0,1.0,78,0.00,,,0.05,Wunderground v.1.15,2013-11-09 00:25:00,
2013-11-08 19:30:00,34.4,28.2,29.83,NNE,25,1.0,4.0,78,0.00,,,0.05,Wunderground v.1.15,2013-11-09 00:30:00,
2013-11-08 19:35:00,34.4,28.2,29.83,WNW,288,1.0,1.0,78,0.00,,,0.05,Wunderground v.1.15,2013-11-09 00:35:00,
2013-11-08 19:40:00,34.4,28.2,29.83,WNW,293,1.0,4.0,78,0.00,,,0.05,Wunderground v.1.15,2013-11-09 00:40:00,
2013-11-08 19:45:00,34.5,28.3,29.83,North,355,1.0,1.0,78,0.00,,,0.05,Wunderground v.1.15,2013-11-09 00:45:00,
2013-11-08 19:50:00,34.4,28.2,29.84,NE,40,2.0,2.0,78,0.00,,,0.05,Wunderground v.1.15,2013-11-09 00:50:00,
2013-11-08 19:55:00,34.5,28.3,29.84,East,81,1.0,6.0,78,0.00,,,0.05,Wunderground v.1.15,2013-11-09 00:55:00,
2013-11-08 20:00:00,34.5,28.3,29.84,NE,42,2.0,6.0,78,0.00,,,0.05,Wunderground v.1.15,2013-11-09 01:00:00,
2013-11-08 20:05:00,34.5,28.3,29.84,NE,46,2.0,2.0,78,0.00,,,0.05,Wunderground v.1.15,2013-11-09 01:05:00,
2013-11-08 20:10:00,34.5,28.7,29.84,ENE,61,1.0,4.0,79,0.00,,,0.05,Wunderground v.1.15,2013-11-09 01:10:00,
2013-11-08 20:15:00,34.4,28.6,29.84,NE,42,1.0,1.0,79,0.00,,,0.05,Wunderground v.1.15,2013-11-09 01:15:00,
2013-11-08 20:20:00,34.4,28.6,29.85,West,270,2.0,2.0,79,0.00,,,0.05,Wunderground v.1.15,2013-11-09 01:20:00,
2013-11-08 20:25:00,34.3,28.5,29.85,North,5,2.0,2.0,79,0.00,,,0.05,Wunderground v.1.15,2013-11-09 01:25:00,
2013-11-08 20:30:00,34.2,28.7,29.85,East,79,2.0,4.0,80,0.00,,,0.05,Wunderground v.1.15,2013-11-09 01:30:00,
2013-11-08 20:35:00,34.2,28.7,29.85,WNW,288,1.0,4.0,80,0.00,,,0.05,Wunderground v.1.15,2013-11-09 01:35:00,
2013-11-08 20:40:00,34.1,28.6,29.85,East,94,2.0,4.0,80,0.00,,,0.05,Wunderground v.1.15,2013-11-09 01:40:00,
2013-11-08 20:45:00,34.2,29.0,29.85,WSW,257,1.0,1.0,81,0.00,,,0.05,Wunderground v.1.15,2013-11-09 01:45:00,
2013-11-08 20:50:00,34.2,29.0,29.86,SSW,196,1.0,4.0,81,0.00,,,0.05,Wunderground v.1.15,2013-11-09 01:50:00,
2013-11-08 20:55:00,34.2,29.0,29.86,East,88,1.0,5.0,81,0.00,,,0.05,Wunderground v.1.15,2013-11-09 01:55:00,
2013-11-08 21:00:00,34.2,29.0,29.86,NNE,26,2.0,5.0,81,0.00,,,0.05,Wunderground v.1.15,2013-11-09 02:00:00,
2013-11-08 21:05:00,34.2,29.0,29.86,ENE,67,2.0,4.0,81,0.00,,,0.05,Wunderground v.1.15,2013-11-09 02:05:00,
2013-11-08 21:10:00,34.2,29.0,29.86,NW,306,2.0,4.0,81,0.00,,,0.05,Wunderground v.1.15,2013-11-09 02:10:00,
2013-11-08 21:15:00,34.2,29.0,29.86,SSW,209,2.0,4.0,81,0.00,,,0.05,Wunderground v.1.15,2013-11-09 02:15:00,
2013-11-08 21:20:00,34.2,29.0,29.86,West,278,2.0,6.0,81,0.00,,,0.05,Wunderground v.1.15,2013-11-09 02:20:00,
2013-11-08 21:25:00,34.2,29.3,29.86,ENE,65,2.0,2.0,82,0.00,,,0.05,Wunderground v.1.15,2013-11-09 02:25:00,
2013-11-08 21:30:00,34.1,29.2,29.87,ENE,67,2.0,4.0,82,0.00,,,0.05,Wunderground v.1.15,2013-11-09 02:30:00,
2013-11-08 21:35:00,34.0,29.1,29.87,ENE,59,1.0,4.0,82,0.00,,,0.05,Wunderground v.1.15,2013-11-09 02:35:00,
2013-11-08 21:40:00,34.0,29.1,29.87,NNE,14,2.0,4.0,82,0.00,,,0.05,Wunderground v.1.15,2013-11-09 02:40:00,
2013-11-08 21:45:00,34.0,29.1,29.86,North,5,2.0,4.0,82,0.00,,,0.05,Wunderground v.1.15,2013-11-09 02:45:00,
2013-11-08 21:50:00,34.1,29.2,29.86,ENE,58,1.0,4.0,82,0.00,,,0.05,Wunderground v.1.15,2013-11-09 02:50:00,
2013-11-08 21:55:00,34.1,29.2,29.86,NNE,15,2.0,4.0,82,0.00,,,0.05,Wunderground v.1.15,2013-11-09 02:55:00,
2013-11-08 22:00:00,34.1,29.2,29.86,ENE,61,2.0,4.0,82,0.00,,,0.05,Wunderground v.1.15,2013-11-09 03:00:00,
2013-11-08 22:05:00,34.1,29.2,29.86,East,81,2.0,7.0,82,0.00,,,0.05,Wunderground v.1.15,2013-11-09 03:05:00,
2013-11-08 22:10:00,34.1,29.2,29.86,ENE,70,2.0,7.0,82,0.00,,,0.05,Wunderground v.1.15,2013-11-09 03:10:00,
2013-11-08 22:15:00,34.1,29.2,29.87,ENE,64,1.0,1.0,82,0.00,,,0.05,Wunderground v.1.15,2013-11-09 03:15:00,
2013-11-08 22:20:00,34.0,29.4,29.87,ENE,74,1.0,4.0,83,0.00,,,0.05,Wunderground v.1.15,2013-11-09 03:20:00,
2013-11-08 22:25:00,34.0,29.4,29.87,East,91,1.0,4.0,83,0.00,,,0.05,Wunderground v.1.15,2013-11-09 03:25:00,
2013-11-08 22:30:00,34.0,29.4,29.87,NE,35,1.0,4.0,83,0.00,,,0.05,Wunderground v.1.15,2013-11-09 03:30:00,
2013-11-08 22:35:00,34.0,29.4,29.87,NE,49,1.0,1.0,83,0.00,,,0.05,Wunderground v.1.15,2013-11-09 03:35:00,
2013-11-08 22:40:00,34.0,29.4,29.87,East,87,1.0,4.0,83,0.00,,,0.05,Wunderground v.1.15,2013-11-09 03:40:00,
2013-11-08 22:45:00,34.0,29.4,29.87,ESE,114,1.0,1.0,83,0.00,,,0.05,Wunderground v.1.15,2013-11-09 03:45:00,
2013-11-08 22:50:00,34.0,29.4,29.87,ENE,67,2.0,5.0,83,0.00,,,0.05,Wunderground v.1.15,2013-11-09 03:50:00,
2013-11-08 22:55:00,34.0,29.4,29.87,South,188,2.0,2.0,83,0.00,,,0.05,Wunderground v.1.15,2013-11-09 03:55:00,
2013-11-08 23:00:00,33.9,29.3,29.87,ENE,75,1.0,4.0,83,0.00,,,0.05,Wunderground v.1.15,2013-11-09 04:00:00,
2013-11-08 23:05:00,33.9,29.3,29.87,SSE,153,1.0,1.0,83,0.00,,,0.05,Wunderground v.1.15,2013-11-09 04:05:00,
2013-11-08 23:10:00,33.9,29.6,29.87,ESE,120,1.0,4.0,84,0.00,,,0.05,Wunderground v.1.15,2013-11-09 04:10:00,
2013-11-08 23:15:00,33.9,29.6,29.87,ESE,120,1.0,1.0,84,0.00,,,0.05,Wunderground v.1.15,2013-11-09 04:15:00,
2013-11-08 23:20:00,33.9,29.6,29.87,ESE,111,1.0,4.0,84,0.00,,,0.05,Wunderground v.1.15,2013-11-09 04:20:00,
2013-11-08 23:25:00,33.9,29.6,29.87,SSW,195,1.0,1.0,84,0.00,,,0.05,Wunderground v.1.15,2013-11-09 04:25:00,
2013-11-08 23:30:00,33.9,29.6,29.87,ESE,103,0.0,4.0,84,0.00,,,0.05,Wunderground v.1.15,2013-11-09 04:30:00,
2013-11-08 23:35:00,33.9,29.6,29.87,SE,133,1.0,4.0,84,0.00,,,0.05,Wunderground v.1.15,2013-11-09 04:35:00,
2013-11-08 23:40:00,33.9,29.6,29.87,North,5,1.0,4.0,84,0.00,,,0.05,Wunderground v.1.15,2013-11-09 04:40:00,
2013-11-08 23:45:00,33.9,29.6,29.87,West,272,1.0,1.0,84,0.00,,,0.05,Wunderground v.1.15,2013-11-09 04:45:00,
2013-11-08 23:50:00,33.9,29.6,29.87,North,360,1.0,4.0,84,0.00,,,0.05,Wunderground v.1.15,2013-11-09 04:50:00,
2013-11-08 23:55:00,33.9,29.9,29.87,NE,43,1.0,1.0,85,0.00,,,0.05,Wunderground v.1.15,2013-11-09 04:55:00,